Weather History for KADM - June, 2014

Change the Weather History Date:

Saturday, June 7, 2014

  Actual Average Record
Temperature  
Mean Temperature 80 °F -  
Max Temperature 93 °F 83 °F 95 °F (2006)
Min Temperature 67 °F 65 °F 57 °F (2013)
Cooling Degree Days 15    
Growing Degree Days 30 (Base 50)    
Moisture  
Dew Point 70 °F    
Average Humidity 83    
Maximum Humidity 100    
Minimum Humidity 46    
Precipitation  
Precipitation 0.74 in - - ()
Sea Level Pressure  
Sea Level Pressure 29.89 in    
Wind  
Wind Speed 5 mph (East)    
Max Wind Speed 22 mph    
Max Gust Speed 24 mph    
Visibility 9 miles    
Events Rain , Thunderstorm    
Averages and records for this station are not official NWS values.
T = Trace of Precipitation, MM = Missing Value Source: NWS Daily Summary

Daily Weather History Graph

Daily Weather History Graph

Search for Another Location

Airport or City:

Trip Planner

Search our weather history database for the weather conditions in past years. The results will help you decide how hot, cold, wet, or windy it might be!

Date:

Astronomy

Jun. 07, 2014 Rise Set
Actual Time 6:15 AM CDT 8:38 PM CDT
Civil Twilight 5:46 AM CDT 9:07 PM CDT
Nautical Twilight 5:10 AM CDT 9:43 PM CDT
Astronomical Twilight 4:31 AM CDT 10:22 PM CDT
Moon 3:10 PM CDT (6/7) 2:23 AM CDT (6/7)
Length of Visible Light 15h 20m
Length of Day
14h 22m
Waxing Gibbous, 68% of the Moon is Illuminated
Jun 7
Waxing Gibbous
Jun 12
Full
Jun 19
Last Quarter
Jun 27
New
Jul 5
First Quarter

Hourly Weather History & Observations

Time (CDT) Temp. Heat Index Dew Point Humidity Pressure Visibility Wind Dir Wind Speed Gust Speed Precip Events Conditions
12:15 AM 76.3 °F - 71.2 °F 84% 29.88 in 10.0 mi SE 3.5 mph - N/A   Scattered Clouds
12:35 AM 74.5 °F - 71.1 °F 89% 29.91 in 10.0 mi Calm Calm - N/A   Scattered Clouds
12:55 AM 75.2 °F - 72.0 °F 90% 29.93 in 10.0 mi Calm Calm - N/A   Scattered Clouds
1:15 AM 74.3 °F - 71.8 °F 92% 29.92 in 7.0 mi East 3.5 mph - N/A   Scattered Clouds
1:35 AM 74.3 °F - 71.6 °F 91% 29.91 in 10.0 mi East 4.6 mph - N/A   Clear
1:55 AM 74.7 °F - 71.6 °F 90% 29.90 in 10.0 mi ESE 4.6 mph - N/A   Scattered Clouds
2:15 AM 74.7 °F - 71.6 °F 90% 29.89 in 10.0 mi ESE 4.6 mph - N/A   Scattered Clouds
2:35 AM 74.7 °F - 71.6 °F 90% 29.87 in 10.0 mi SE 5.8 mph - N/A   Clear
2:55 AM 75.7 °F - 71.6 °F 87% 29.90 in 10.0 mi Calm Calm - N/A   Clear
3:15 AM 75.2 °F - 68.4 °F 79% 29.91 in 10.0 mi NNW 21.9 mph - N/A   Mostly Cloudy
3:35 AM 75.4 °F - 68.0 °F 78% 29.87 in 10.0 mi East 8.1 mph - N/A   Mostly Cloudy
3:55 AM 73.9 °F - 68.0 °F 82% 29.87 in 10.0 mi Calm Calm - N/A   Scattered Clouds
4:15 AM 73.4 °F - 68.0 °F 83% 29.87 in 10.0 mi NNW 3.5 mph - N/A   Scattered Clouds
4:35 AM 71.2 °F - 67.5 °F 88% 29.87 in 10.0 mi NNE 3.5 mph - N/A   Clear
4:55 AM 70.7 °F - 67.5 °F 89% 29.85 in 10.0 mi Calm Calm - N/A   Clear
5:15 AM 69.6 °F - 67.3 °F 92% 29.86 in 10.0 mi Calm Calm - N/A   Clear
5:35 AM 69.1 °F - 66.7 °F 92% 29.86 in 10.0 mi West 3.5 mph - N/A   Clear
5:55 AM 69.1 °F - 67.1 °F 93% 29.86 in 10.0 mi Calm Calm - N/A   Clear
6:15 AM 67.8 °F - 66.6 °F 96% 29.86 in 10.0 mi Calm Calm - N/A   Clear
6:55 AM 68.0 °F - 68.0 °F 100% 29.89 in 10.0 mi Calm Calm - N/A   Clear
7:55 AM 73.4 °F - 71.6 °F 94% 29.90 in 10.0 mi Calm Calm - N/A   Clear
8:55 AM 80.6 °F 85.4 °F 73.4 °F 79% 29.92 in 10.0 mi South 11.5 mph - N/A   Clear
9:55 AM 86.0 °F 91.8 °F 71.6 °F 62% 29.91 in 10.0 mi SSW 12.7 mph 18.4 mph N/A   Clear
10:55 AM 89.6 °F 94.7 °F 69.8 °F 52% 29.91 in 10.0 mi SSW 12.7 mph 16.1 mph N/A   Clear
11:55 AM 91.4 °F 95.4 °F 68.0 °F 46% 29.90 in 10.0 mi SSW 11.5 mph 19.6 mph N/A   Clear
12:55 PM - - - N/A% - 10.0 mi SSW 11.5 mph 19.6 mph N/A   Clear
2:55 PM 93.2 °F 98.8 °F 69.8 °F 46% 29.87 in 10.0 mi NNW 9.2 mph - N/A   Clear
3:55 PM 91.4 °F 102.5 °F 75.2 °F 59% 29.86 in 10.0 mi North 13.8 mph - N/A   Clear
4:55 PM 87.8 °F 97.6 °F 75.2 °F 66% 29.85 in 10.0 mi NE 12.7 mph - N/A   Scattered Clouds
10:15 PM 77.2 °F - 73.4 °F 88% 29.93 in 2.5 mi WNW 16.1 mph 24.2 mph 0.20 in Rain , Thunderstorm Heavy Thunderstorms and Rain
10:35 PM 73.9 °F - 72.5 °F 95% 29.91 in 1.8 mi Calm Calm - 0.65 in Rain , Thunderstorm Heavy Thunderstorms and Rain
10:55 PM 72.3 °F - 70.7 °F 95% 29.90 in 10.0 mi SSW 3.5 mph - 0.68 in Thunderstorm Mostly Cloudy
11:15 PM 73.0 °F - 70.0 °F 90% 29.94 in 10.0 mi ENE 12.7 mph - N/A Thunderstorm Scattered Clouds
11:35 PM 72.3 °F - 70.0 °F 92% 29.92 in 5.0 mi ENE 12.7 mph - 0.04 in Rain , Thunderstorm Heavy Thunderstorms and Rain
11:55 PM 71.2 °F - 69.3 °F 93% 29.89 in 10.0 mi ENE 6.9 mph - 0.06 in Rain Light Rain